Flag for Portugal Weather past 2 weeks in Funchal, Madeira, Portugal

Now
72 °F

Passing clouds.


Feels Like: 72 °F
Forecast: 72 / 79 °F
Wind: 8 mph from North

Location: Aeroporto Da Madeira

Current Time: Sep 2, 2015 at 5:58:02 AM

Latest Report: Sep 2, 2015 at 5:00 AM


Visibility: N/A

Pressure: 30.12 "Hg

Humidity: 78%

Dew point: 64 °F

Location of FunchalLocation

Historic Weather in Funchal — Graph

°F

Funchal temperature yesterday

Maximum temperature yesterday: 79 °F (at 11:00 AM)
Minimum temperature yesterday: 70 °F (at 6:30 AM)
Average temperature yesterday: 75 °F

Past Weeks' High & Low Weather Summary

 TemperatureHumidityPressure
High82 °F (Aug 30, 12:30 PM)88% (Aug 23, 8:00 AM)30.24 "Hg (Aug 23, 8:00 AM)
Low68 °F (Aug 24, 3:00 AM)45% (Sep 1, 12:00 PM)29.95 "Hg (Aug 29, 4:00 PM)
Average74 °F69%30.11 "Hg
* Reported Aug 18 4:00 AM — Sep 2 4:30 AM, Funchal, Weather by CustomWeather, © 2015

Note: Actual official high and low records may vary slightly from our data, if they occured in-between our weather recording intervals... More about our weather records

Advertising

Funchal weather history for previous 24 hours

 ConditionsComfort  
Time TempWeatherWind HumidityBarometerVisibility
4:30 AM
Wed, Sep 2
70 °FPassing clouds.9 mph83%30.12 "HgN/A
4:00 AM72 °FPassing clouds.8 mph78%30.12 "HgN/A
3:30 AM72 °FPassing clouds.10 mph78%30.12 "HgN/A
3:00 AM70 °FSprinkles. Passing clouds.9 mph83%30.12 "HgN/A
2:30 AM72 °FPassing clouds.6 mph78%30.15 "HgN/A
2:00 AM72 °FPassing clouds.5 mph73%30.15 "HgN/A
1:30 AM70 °FPassing clouds.3 mph83%30.15 "HgN/A
1:00 AM70 °FSprinkles. Passing clouds.9 mph83%30.15 "HgN/A
12:30 AM73 °FPassing clouds.5 mph69%30.15 "HgN/A
12:00 AM73 °FPassing clouds.6 mph69%30.15 "HgN/A
11:30 PM
Tue, Sep 1
73 °FPassing clouds.7 mph69%30.15 "HgN/A
10:30 PM73 °FScattered clouds.9 mph69%30.15 "HgN/A
10:00 PM73 °FScattered clouds.7 mph69%30.15 "HgN/A
9:30 PM73 °FScattered clouds.9 mph69%30.12 "HgN/A
9:00 PM73 °FPassing clouds.10 mph65%30.12 "HgN/A
8:30 PM73 °FPassing clouds.10 mph61%30.12 "HgN/A
8:00 PM75 °FPassing clouds.8 mph61%30.12 "HgN/A
7:30 PM75 °FPassing clouds.7 mph61%30.12 "HgN/A
7:00 PM77 °FScattered clouds.7 mph61%30.12 "HgN/A
6:30 PM75 °FScattered clouds.8 mph65%30.15 "HgN/A
6:00 PM75 °FScattered clouds.7 mph65%30.15 "HgN/A
5:30 PM75 °FBroken clouds.6 mph65%30.15 "HgN/A
5:00 PM75 °FBroken clouds.6 mph69%30.15 "HgN/A
4:30 PM75 °FBroken clouds.9 mph65%30.15 "HgN/A
4:00 PM75 °FBroken clouds.9 mph65%30.15 "HgN/A
3:30 PM77 °FScattered clouds.8 mph57%30.15 "HgN/A
3:00 PM77 °FScattered clouds.9 mph61%30.15 "HgN/A
2:30 PM77 °FScattered clouds.7 mph65%30.15 "HgN/A
2:00 PM77 °FScattered clouds.7 mph61%30.15 "HgN/A
1:30 PM77 °FScattered clouds.8 mph61%30.15 "HgN/A
1:00 PM79 °FScattered clouds.13 mph54%30.15 "HgN/A
12:30 PM79 °FPassing clouds.16 mph54%30.15 "HgN/A
12:00 PM79 °FPassing clouds.13 mph45%30.15 "HgN/A
11:30 AM79 °FPassing clouds.14 mph51%30.15 "HgN/A
11:00 AM79 °FPassing clouds.13 mph54%30.15 "HgN/A
10:30 AM77 °FPassing clouds.12 mph54%30.15 "HgN/A
10:00 AM75 °FPassing clouds.12 mph61%30.15 "HgN/A
9:30 AM75 °FPassing clouds.13 mph61%30.15 "HgN/A
9:00 AM73 °FPassing clouds.12 mph65%30.15 "HgN/A
8:30 AM72 °FPassing clouds.10 mph69%30.15 "HgN/A
8:00 AM72 °FPassing clouds.10 mph69%30.15 "HgN/A
7:30 AM72 °FPassing clouds.10 mph69%30.15 "HgN/A
7:00 AM72 °FPassing clouds.7 mph65%30.15 "HgN/A
6:30 AM70 °FPassing clouds.2 mph73%30.15 "HgN/A
6:00 AM72 °FPassing clouds.5 mph69%30.15 "HgN/A
5:30 AM72 °FPassing clouds.10 mph69%30.15 "HgN/A
Weather by CustomWeather, © 2015

See weather overviewHow to use our weather pages